Location: Gollag?dem
(17.0207°N, 80.7261°E)
Time: 06:37:22
(UTC+00:00)

Cosmos 2150 Rocket - Pass Details

Date: 03 August 2024
Orbit: 747 x 805 km, 74.0° (Epoch: 09 September)

Event Time Altitude Azimuth Distance (km) Brightness Sun altitude
Rises 23:36:35 0° 345° (NNW) 3,249 7.3 -10.1°
Reaches altitude 10° 23:38:59 10° 344° (NNW) 2,312 6.6 -9.6°
Maximum altitude 23:44:13 81° 258° (WSW) 775 4.0 -8.4°
Drops below altitude 10° 23:49:22 10° 171° (S) 2,273 6.3 -7.3°
Sets 23:51:43 0° 170° (S) 3,190 7.1 -6.7°
